Location: Krakow
(50.0830°N, 19.9170°E)
Time: 12:12:29
(UTC+02:00)

A-11 Canister half - Pass Details

Date: 17 March 2026
Orbit: 1523 x 1684 km, 47.3° (Epoch: 16 April)

Event Time Altitude Azimuth Distance (km) Brightness Sun altitude
Rises 16:36:04 0° 285° (WNW) 4,745 12.7 10.6°
Reaches altitude 10° 16:41:03 10° 264° (W) 3,729 13.7 9.8°
Maximum altitude 16:45:28 14° 235° (SW) 3,364 12.4 9.2°
Drops below altitude 10° 16:49:52 10° 206° (SSW) 3,687 11.6 8.5°
Sets 16:54:47 0° 184° (S) 4,657 11.7 7.7°
